This is the latest recevied weather packets stored in our database for station/object W2BP-13. If no packets are shown the sender has not sent any weather packets the latest 10 day(s).
| Time | Temp. | Humidity | Pressure | Rain* | Wind** | Luminosity | Snow |
|---|---|---|---|---|---|---|---|
| 1778194532 | 27.78° C | 22% | 1017.5 hPa | 0 mm | - | - | - |
| 1778193633 | 27.78° C | 20% | 1017.5 hPa | 0 mm | - | - | - |
| 1778192732 | 27.78° C | 22% | 1017.8 hPa | 0 mm | - | - | - |
| 1778191833 | 28.33° C | 21% | 1017.9 hPa | 0 mm | - | - | - |
| 1778190933 | 27.22° C | 25% | 1018 hPa | 0 mm | - | - | - |
| 1778190032 | 26.67° C | 23% | 1018.4 hPa | 0 mm | - | - | - |
| 1778189133 | 26.11° C | 27% | 1018.5 hPa | 0 mm | - | - | - |
| 1778188233 | 26.67° C | 27% | 1018.5 hPa | 0 mm | - | - | - |
| 1778187332 | 26.11° C | 27% | 1018.8 hPa | 0 mm | - | - | - |
| 1778186495 | 26.11° C | 26% | 1018.9 hPa | 0 mm | - | - | - |
| 1778185533 | 25.56° C | 28% | 1019.3 hPa | 0 mm | - | - | - |
| 1778184632 | 24.44° C | 31% | 1019.1 hPa | 0 mm | - | - | - |
| 1778183733 | 24.44° C | 32% | 1019.4 hPa | 0 mm | - | - | - |
| 1778182833 | 23.89° C | 32% | 1019.5 hPa | 0 mm | - | - | - |
| 1778181932 | 22.78° C | 35% | 1019.5 hPa | 0 mm | - | - | - |
| 1778181033 | 23.33° C | 34% | 1019.9 hPa | 0 mm | - | - | - |
| 1778180133 | 22.78° C | 35% | 1019.9 hPa | 0 mm | - | - | - |
| 1778179233 | 22.78° C | 36% | 1020.1 hPa | 0 mm | - | - | - |
| 1778178333 | 22.22° C | 35% | 1020.1 hPa | 0 mm | - | - | - |
| 1778177433 | 22.22° C | 37% | 1020.2 hPa | 0 mm | - | - | - |
| 1778176532 | 21.67° C | 36% | 1020.2 hPa | 0 mm | - | - | - |
| 1778175633 | 21.67° C | 39% | 1020.4 hPa | 0 mm | - | - | - |
| 1778174733 | 21.11° C | 41% | 1020.3 hPa | 0 mm | - | - | - |
| 1778173833 | 20.56° C | 40% | 1020.5 hPa | 0 mm | - | - | - |
| 1778172933 | 21.11° C | 40% | 1020.5 hPa | 0 mm | - | - | - |
* Rain latest hour (hover to see other rain measurements)
** Current wind speed in m/s (hover to see current wind gust speed)